Flag for France Weather past 2 weeks in Nîmes, France

Now
64 °F

Clear.


Feels Like: 64 °F
Forecast: 58 / 82 °F
Wind: 8 mph from North

Location: Nimes / Garons

Current Time: May 31, 2015 at 1:07:21 AM

Latest Report: May 31, 2015 at 12:30 AM


Visibility: 10 mi

Pressure: 30.01 "Hg

Humidity: 60%

Dew point: 50 °F

Location of NîmesLocation

Historic Weather in Nîmes — Graph

°F

Nîmes temperature yesterday

Maximum temperature yesterday: 82 °F (at 4:00 PM)
Minimum temperature yesterday: 59 °F (at 4:00 AM)
Average temperature yesterday: 71 °F

Past Weeks' High & Low Weather Summary

 TemperatureHumidityPressure
High82 °F (May 28, 4:30 PM)100% (May 30, 5:00 AM)30.21 "Hg (May 30, 5:00 AM)
Low48 °F (May 21, 4:00 AM)21% (May 28, 4:30 PM)29.80 "Hg (May 19, 5:00 AM)
Average65 °F51%29.99 "Hg
* Reported Midnight between May 15 and May 16 — May 31 12:30 AM, Nîmes, Weather by CustomWeather, © 2015

Note: Actual official high and low records may vary slightly from our data, if they occured in-between our weather recording intervals... More about our weather records

Advertising

Nîmes weather history for previous 24 hours

 ConditionsComfort  
Time TempWeatherWind HumidityBarometerVisibility
12:30 AM
Sun, May 31
64 °FClear.8 mph60%30.01 "Hg10 mi
12:00 AM64 °FClear.6 mph60%30.01 "Hg10 mi
11:00 PM
Sat, May 30
68 °FClear.7 mph53%29.98 "Hg10 mi
10:30 PM70 °FClear.6 mph50%29.98 "Hg10 mi
10:00 PM70 °FSunny.7 mph53%29.98 "Hg10 mi
9:30 PM70 °FSunny.No wind57%29.98 "Hg10 mi
9:00 PM73 °FSunny.5 mph50%29.95 "Hg10 mi
8:30 PM75 °FPassing clouds.5 mph47%29.95 "HgN/A
8:00 PM79 °FPassing clouds.7 mph42%29.95 "HgN/A
7:30 PM79 °FPassing clouds.9 mph37%29.95 "HgN/A
7:00 PM81 °FPassing clouds.6 mph34%29.95 "HgN/A
6:30 PM81 °FPassing clouds.7 mph34%29.95 "HgN/A
6:00 PM82 °FPassing clouds.5 mph28%29.95 "HgN/A
5:30 PM82 °FSunny.5 mph25%29.95 "Hg10 mi
5:00 PM82 °FPassing clouds.6 mph25%29.95 "HgN/A
4:30 PM82 °FSunny.5 mph26%29.95 "Hg10 mi
4:00 PM82 °FSunny.5 mph28%29.98 "Hg10 mi
3:30 PM81 °FSunny.3 mph32%29.98 "Hg10 mi
3:00 PM81 °FSunny.3 mph32%29.98 "Hg10 mi
2:30 PM81 °FPassing clouds.6 mph32%29.98 "HgN/A
2:00 PM81 °FSunny.5 mph34%29.98 "Hg10 mi
1:30 PM79 °FPassing clouds.7 mph32%30.01 "HgN/A
1:00 PM77 °FSunny.5 mph39%30.01 "Hg10 mi
12:30 PM77 °FPassing clouds.6 mph39%30.01 "HgN/A
12:00 PM75 °FPassing clouds.6 mph41%30.01 "HgN/A
11:30 AM75 °FPassing clouds.7 mph47%30.01 "HgN/A
11:00 AM73 °FPassing clouds.7 mph50%30.01 "HgN/A
10:30 AM73 °FPassing clouds.9 mph47%30.01 "HgN/A
10:00 AM72 °FPassing clouds.8 mph57%30.01 "HgN/A
9:30 AM70 °FPassing clouds.8 mph60%30.01 "HgN/A
9:00 AM70 °FPassing clouds.7 mph64%30.01 "HgN/A
8:30 AM66 °FPassing clouds.8 mph73%30.01 "HgN/A
8:00 AM64 °FSunny.7 mph83%30.01 "Hg10 mi
7:30 AM63 °FSunny.3 mph88%29.98 "Hg10 mi
7:00 AM59 °FFog.3 mph100%29.98 "Hg2 mi
6:30 AM59 °FFog.2 mph94%29.98 "Hg2 mi
6:00 AM59 °FFog.1 mph94%29.98 "Hg3 mi
5:30 AM59 °FFog.3 mph94%29.98 "Hg2 mi
5:00 AM59 °FFog.3 mph100%29.98 "Hg2 mi
4:30 AM61 °FFog.2 mph94%29.98 "Hg2 mi
4:00 AM59 °FFog.3 mph94%29.98 "Hg3 mi
3:30 AM61 °FFog.No wind94%29.98 "Hg3 mi
3:00 AM61 °FFog.3 mph94%29.98 "Hg3 mi
2:30 AM61 °FClear.2 mph94%29.98 "Hg4 mi
2:00 AM61 °FClear.2 mph94%29.98 "Hg4 mi
1:30 AM61 °FLight rain. Fog.5 mph94%29.98 "Hg3 mi
1:00 AM61 °FCool.6 mph94%29.98 "Hg4 mi
Weather by CustomWeather, © 2015

See weather overviewHow to use our weather pages